Location: Lombard
(41.8800°N, 88.0080°W)
Time: 09:54:54
(UTC-06:00)

Transit 2A - Visible Passes

Search period start: 29 January 2023 00:00
Search period end: 08 February 2023 00:00
Orbit: 594 x 962 km, 66.7° (Epoch: 29 January)

Date Brightness Start Highest point End Pass type
(mag) Time Alt. Az. Time Alt. Az. Time Alt. Az.
29 Jan 6.1 18:13:52 10° SW 18:18:34 70° WNW 18:23:50 10° NNE visible
29 Jan 8.5 20:00:21 10° WNW 20:02:54 14° NW 20:04:49 12° NNW visible
30 Jan 5.8 17:39:23 10° SSW 17:44:05 79° ESE 17:49:20 10° NNE visible
30 Jan 8.3 19:24:37 10° W 19:28:01 18° NW 19:31:38 10° N visible
31 Jan 7.9 18:49:13 10° W 18:53:11 24° NW 18:57:30 10° N visible
01 Feb 7.5 18:14:05 10° WSW 18:18:26 32° NW 18:23:16 10° NNE visible
02 Feb 6.9 17:39:08 10° SW 17:43:46 46° NW 17:48:55 10° NNE visible
02 Feb 8.7 19:27:42 10° NW 19:28:31 10° NNW 19:29:20 10° NNW visible
03 Feb 8.6 18:51:00 10° WNW 18:53:32 13° NW 18:56:11 10° N visible
04 Feb 8.3 18:15:14 10° W 18:18:38 18° NW 18:22:15 10° N visible
05 Feb 8.0 17:39:48 10° W 17:43:47 23° NW 17:48:07 10° N visible
07 Feb 8.7 18:18:21 10° NW 18:19:07 10° NNW 18:19:54 10° NNW visible
